Regional Weather Roundup
Issued by NWS

Home | Current Version | Previous Version | Text Only | Print | Product List | Glossary On
Versions: 1 2 3 4 5 6 7 8 9 10 11 12 13 14 15 16 17 18 19 20 21 22 23 24 25 26 27 28 29 30 31 32 33 34 35 36 37 38 39 40 41 42 43 44 45 46 47 48 49 50
000
ASUS44 KMEG 270810
RWRTN
TENNESSEE HOURLY STATE WEATHER ROUNDUP
NATIONAL WEATHER SERVICE MEMPHIS TN
300 AM CDT SAT AUG 27 2016

TNZ002-004-019-021-049-052-054-088>092-270900-
WEST TENNESSEE

CITY           SKY/WX    TMP DP  RH WIND       PRES   REMARKS
MEMPHIS INTL   PTCLDY    74  70  87 CALM      30.01F
NWS MEMPHIS      N/A     71 N/A N/A MISG        N/A
JACKSON        MOCLDY    72  71  97 CALM      30.03F
DYERSBURG      PTCLDY    73  70  88 MISG      30.03F
UNION CITY     CLEAR     72  72 100 CALM      30.02S
PARIS          CLEAR     70  70 100 CALM      30.04S
$$

TNZ008-025-027-028-033-062-065-066-270900-
NORTH MIDDLE TENNESSEE

CITY           SKY/WX    TMP DP  RH WIND       PRES   REMARKS
NASHVILLE      MOCLDY    75  70  84 CALM      30.07S
CLARKSVILLE    CLOUDY    71  69  93 SE3       30.04F
COOKEVILLE     PTCLDY    75  73  94 CALM      30.08F
CROSSVILLE     PTCLDY    70  69  97 SE3       30.15S
$$

TNZ061-075-076-078-094-096-097-270900-
SOUTH MIDDLE TENNESSEE

CITY           SKY/WX    TMP DP  RH WIND       PRES   REMARKS
FAYETTEVILLE   MOCLDY    72  70  94 CALM      30.07F
TULLAHOMA      CLEAR     72  68  88 CALM      30.08F
WINCHESTER     CLEAR     72  70  94 CALM      30.07F
MCMINNVILLE    CLEAR     73  73 100 CALM      30.08F
COLUMBIA       CLEAR    N/A N/A N/A CALM      30.05F
SHELBYVILLE    CLEAR     73  73 100 CALM      30.07F
$$

TNZ017-018-042-046-047-270900-
NORTHEAST TENNESSEE

CITY           SKY/WX    TMP DP  RH WIND       PRES   REMARKS
TRI CITIES     CLEAR     69  67  93 N3        30.16S
ELIZABETHTON     N/A     68  68 100 CALM      30.16S
$$

TNZ012-013-036-069-073-074-270900-
CENTRAL EAST TENNESSEE

CITY           SKY/WX    TMP DP  RH WIND       PRES   REMARKS
KNOXVILLE      PTCLDY    76  70  82 CALM      30.09S
OAK RIDGE      PTCLDY    75  72  90 CALM      30.11
GATLINBURG     CLEAR     72  66  83 CALM      30.10F
MORRISTOWN     CLEAR     73  70  88 CALM      30.11F
$$

TNZ083-085-099-270900-
SOUTHEAST TENNESSEE

CITY           SKY/WX    TMP DP  RH WIND       PRES   REMARKS
CHATTANOOGA    CLEAR     75  73  93 CALM      30.07F
$$

SKY/WX REPORTED AS FAIR MEANS FEW OR NO CLOUDS BELOW
12 THOUSAND FEET.




USA.gov is the U.S. government's official web portal to all federal, state and local government web resources and services.